Weather History for KPIA - October, 2013

Change the Weather History Date:

Monday, October 7, 2013

  Actual Average Record
Temperature  
Mean Temperature 58 °F 57 °F  
Max Temperature 70 °F 68 °F 90 °F (2007)
Min Temperature 45 °F 46 °F 28 °F (1952)
Degree Days  
Heating Degree Days 7 9  
Month to date heating degree days 21 56  
Since 1 July heating degree days 53 146  
Cooling Degree Days 0 1  
Month to date cooling degree days 37 7  
Year to date cooling degree days 1171 1031  
Growing Degree Days 8 (Base 50)    
Moisture  
Dew Point 45 °F    
Average Humidity 65    
Maximum Humidity 93    
Minimum Humidity 37    
Precipitation  
Precipitation 0.00 in 0.09 in 2.52 in (1884)
Month to date precipitation 1.93 0.62  
Year to date precipitation 35.61 28.72  
Snow  
Snow 0.00 in 0.00 in 0.00 in ()
Month to date snowfall 0.0 0.0  
Since 1 July snowfall 0.0 0.0  
Since 1 September snowfall 0.0 0.0  
Snow Depth 0.00 in    
Sea Level Pressure  
Sea Level Pressure 29.97 in    
Wind  
Wind Speed 6 mph (West)    
Max Wind Speed 16 mph    
Max Gust Speed 20 mph    
Visibility 10 miles    
Events      
T = Trace of Precipitation, MM = Missing Value Source: NWS Daily Summary

Daily Weather History Graph

Daily Weather History Graph

Search for Another Location

Airport or City:

Trip Planner

Search our weather history database for the weather conditions in past years. The results will help you decide how hot, cold, wet, or windy it might be!

Date:

Astronomy

Oct. 07, 2013 Rise Set
Actual Time 7:01 AM CDT 6:30 PM CDT
Civil Twilight 6:34 AM CDT 6:57 PM CDT
Nautical Twilight 6:02 AM CDT 7:29 PM CDT
Astronomical Twilight 5:30 AM CDT 8:01 PM CDT
Moon 9:52 AM CDT (10/7) 8:14 PM CDT (10/7)
Length of Visible Light 12h 23m
Length of Day
11h 28m
Waxing Crescent, 9% of the Moon is Illuminated
Oct 7
Waxing Crescent
Oct 11
First Quarter
Oct 18
Full
Oct 26
Last Quarter
Nov 3
New

Hourly Weather History & Observations

Time (CDT) Temp. Windchill Dew Point Humidity Pressure Visibility Wind Dir Wind Speed Gust Speed Precip Events Conditions
12:54 AM 46.0 °F 43.1 °F 43.0 °F 89% 29.84 in 10.0 mi WSW 5.8 mph - N/A   Mostly Cloudy
1:17 AM 46.9 °F - 44.1 °F 90% 29.85 in 10.0 mi WNW 6.9 mph - N/A   Mostly Cloudy
1:54 AM 46.0 °F 41.4 °F 43.0 °F 89% 29.86 in 10.0 mi West 9.2 mph - N/A   Scattered Clouds
2:23 AM 46.0 °F 43.9 °F 43.0 °F 89% 29.87 in 10.0 mi West 4.6 mph - N/A   Mostly Cloudy
2:30 AM 46.0 °F 43.9 °F 43.0 °F 89% 29.87 in 10.0 mi West 4.6 mph - N/A   Overcast
2:54 AM 46.9 °F - 44.1 °F 90% 29.88 in 10.0 mi West 5.8 mph - N/A   Overcast
3:54 AM 46.0 °F 43.1 °F 43.0 °F 89% 29.88 in 10.0 mi West 5.8 mph - N/A   Mostly Cloudy
4:05 AM 46.0 °F 43.1 °F 44.1 °F 93% 29.88 in 10.0 mi WSW 5.8 mph - N/A   Mostly Cloudy
4:54 AM 45.0 °F 41.8 °F 43.0 °F 93% 29.91 in 10.0 mi SW 5.8 mph - N/A   Scattered Clouds
5:18 AM 46.0 °F 43.1 °F 44.1 °F 93% 29.91 in 10.0 mi WSW 5.8 mph - N/A   Mostly Cloudy
5:54 AM 46.9 °F - 44.1 °F 90% 29.91 in 10.0 mi West 6.9 mph - N/A   Overcast
6:54 AM 48.0 °F - 46.0 °F 93% 29.93 in 8.0 mi West 6.9 mph - N/A   Overcast
7:54 AM 50.0 °F - 48.0 °F 93% 29.96 in 10.0 mi West 8.1 mph - N/A   Overcast
8:14 AM 51.1 °F - 48.0 °F 89% 29.96 in 10.0 mi West 6.9 mph - N/A   Overcast
8:44 AM 52.0 °F - 48.0 °F 86% 29.97 in 10.0 mi NW 10.4 mph - N/A   Scattered Clouds
8:54 AM 53.1 °F - 46.9 °F 80% 29.98 in 10.0 mi WNW 11.5 mph - N/A   Partly Cloudy
9:54 AM 55.0 °F - 46.9 °F 74% 30.01 in 10.0 mi NW 6.9 mph - N/A   Partly Cloudy
10:54 AM 57.9 °F - 46.9 °F 67% 30.03 in 10.0 mi West 4.6 mph - N/A   Partly Cloudy
11:54 AM 62.1 °F - 46.9 °F 58% 30.04 in 10.0 mi West 6.9 mph - N/A   Clear
12:54 PM 64.9 °F - 45.0 °F 48% 30.04 in 10.0 mi WSW 9.2 mph - N/A   Clear
1:54 PM 66.9 °F - 45.0 °F 45% 30.03 in 10.0 mi West 8.1 mph - N/A   Clear
2:54 PM 69.1 °F - 43.0 °F 39% 30.02 in 10.0 mi WNW 9.2 mph 18.4 mph N/A   Clear
3:54 PM 70.0 °F - 44.1 °F 39% 30.02 in 10.0 mi West 12.7 mph - N/A   Clear
4:54 PM 69.1 °F - 44.1 °F 40% 30.02 in 10.0 mi WSW 10.4 mph - N/A   Clear
5:54 PM 68.0 °F - 44.1 °F 42% 30.03 in 10.0 mi West 8.1 mph - N/A   Clear
6:54 PM 62.1 °F - 45.0 °F 53% 30.04 in 10.0 mi Calm Calm - N/A   Clear
7:54 PM 60.1 °F - 46.0 °F 60% 30.05 in 10.0 mi SW 4.6 mph - N/A   Clear
8:54 PM 57.0 °F - 46.9 °F 69% 30.07 in 10.0 mi SW 4.6 mph - N/A   Clear
9:54 PM 55.9 °F - 46.9 °F 72% 30.09 in 10.0 mi WSW 4.6 mph - N/A   Clear
10:54 PM 55.0 °F - 46.9 °F 74% 30.10 in 10.0 mi SSW 3.5 mph - N/A   Clear
11:54 PM 55.0 °F - 46.9 °F 74% 30.10 in 10.0 mi Calm Calm - N/A   Clear